Location: Guilderland
(42.7045°N, 73.9115°W)
Time: 02:43:01
(UTC+00:00)

CZ-4C R/B - Pass Details

Date: 24 January 2020
Orbit: 644 x 1358 km, 63.4° (Epoch: 19 February)

Event Time Altitude Azimuth Distance (km) Brightness Sun altitude
Rises 22:25:03 0° 321° (NW) 3,890 5.9 -5.4°
Reaches altitude 10° 22:27:35 10° 319° (NW) 3,024 5.4 -5.8°
Maximum altitude 22:34:55 67° 239° (WSW) 1,351 3.6 -7.1°
Drops below altitude 10° 22:43:09 10° 159° (SSE) 3,377 5.3 -8.5°
Sets 22:46:07 0° 157° (SSE) 4,368 5.8 -9.0°
